Overview Statistics Trail Chart Weather Telemetry Raw packets
 

This is the latest recevied weather packets stored in our database for station/object W7BTL. If no packets are shown the sender has not sent any weather packets the latest 10 day(s).

<< 56 57 58 59 60 61 62 >>
Time Temp. Humidity Pressure Rain* Wind** Luminosity Snow
1788276034 22.22° C 72% 1015.1 hPa 0 mm - 170 W/m² -
1788275730 22.22° C 71% 1015.2 hPa 0 mm - 206 W/m² -
1788275429 22.22° C 71% 1015.1 hPa 0 mm - 185 W/m² -
1788275127 22.22° C 72% 1015.1 hPa 0 mm - 187 W/m² -
1788274826 22.22° C 73% 1014.8 hPa 0 mm - 175 W/m² -
1788274525 22.22° C 72% 1014.8 hPa 0 mm - 131 W/m² -
1788274234 21.67° C 75% 1014.8 hPa 0 mm - 127 W/m² -
1788273921 21.67° C 74% 1014.9 hPa 0 mm - 110 W/m² -
1788273615 21.11° C 76% 1014.8 hPa 0 mm - 104 W/m² -
1788273326 20° C 80% 1014.8 hPa 0 mm - 97 W/m² -
1788273008 18.89° C 86% 1014.6 hPa 0 mm - 81 W/m² -
1788272708 18.33° C 91% 1014.7 hPa 0 mm - 68 W/m² -
1788272403 17.78° C 92% 1014.7 hPa 0 mm - 54 W/m² -
1788272102 17.78° C 92% 1014.7 hPa 0 mm - 45 W/m² -
1788271798 17.78° C 92% 1014.6 hPa 0 mm - 37 W/m² -
1788271496 17.22° C 93% 1014.6 hPa 0 mm - 27 W/m² -
1788271190 17.22° C 93% 1014.4 hPa 0 mm - 24 W/m² -
1788270890 17.22° C 94% 1014.3 hPa 0 mm - 21 W/m² -
1788270586 17.22° C 94% 1014.5 hPa 0 mm - 18 W/m² -
1788270281 16.67° C 94% 1014.4 hPa 0 mm - 15 W/m² -
1788269976 16.67° C 93% 1014.3 hPa 0 mm - 10 W/m² -
1788269675 16.67° C 93% 1014.3 hPa 0 mm - 7 W/m² -
1788269374 16.67° C 93% 1014.4 hPa 0 mm - 4 W/m² -
1788269069 16.67° C 93% 1014.2 hPa 0 mm - 3 W/m² -
1788268768 16.67° C 92% 1014 hPa 0 mm - 1 W/m² -

* Rain latest hour (hover to see other rain measurements)
** Current wind speed in m/s (hover to see current wind gust speed)